Time,TemperatureF,DewpointF,PressureIn,WindDirection,WindDirectionDegrees,WindSpeedMPH,WindSpeedGustMPH,Humidity,HourlyPrecipIn,Conditions,Clouds,dailyrainin,SoftwareType,DateUTC
2013-04-19 00:01:00,62.2,57.6,29.95,ESE,105,3.0,3.0,85,0.00,,---,0.07,VWS V14.01,2013-04-19 04:01:00,
2013-04-19 00:02:00,62.2,57.6,29.95,ESE,120,1.0,4.0,85,0.00,,---,0.00,VWS V14.01,2013-04-19 04:02:00,
2013-04-19 00:05:00,62.2,57.6,29.95,East,84,2.0,4.0,85,0.00,,---,0.00,VWS V14.01,2013-04-19 04:05:00,
2013-04-19 00:10:00,62.1,57.5,29.95,East,86,2.0,4.0,85,0.00,,---,0.00,VWS V14.01,2013-04-19 04:10:00,
2013-04-19 00:15:00,62.1,57.9,29.95,SE,143,3.0,4.0,86,0.00,,---,0.00,VWS V14.01,2013-04-19 04:15:00,
2013-04-19 00:20:00,61.9,57.7,29.95,ESE,108,3.0,4.0,86,0.00,,---,0.00,VWS V14.01,2013-04-19 04:20:00,
2013-04-19 00:25:00,61.8,57.6,29.94,ESE,120,3.0,4.0,86,0.00,,---,0.00,VWS V14.01,2013-04-19 04:25:00,
2013-04-19 00:30:00,61.7,57.5,29.94,SE,139,2.0,3.0,86,0.00,,---,0.00,VWS V14.01,2013-04-19 04:30:00,
2013-04-19 00:35:00,61.6,57.7,29.94,SE,132,2.0,3.0,87,0.00,,---,0.00,VWS V14.01,2013-04-19 04:35:00,
2013-04-19 00:40:00,61.3,57.4,29.93,SE,143,3.0,3.0,87,0.00,,---,0.00,VWS V14.01,2013-04-19 04:40:00,
2013-04-19 00:45:00,61.1,57.5,29.93,East,99,2.0,3.0,88,0.00,,---,0.00,VWS V14.01,2013-04-19 04:45:00,
2013-04-19 00:50:00,61.1,57.5,29.93,SE,132,3.0,3.0,88,0.00,,---,0.00,VWS V14.01,2013-04-19 04:50:00,
2013-04-19 00:55:00,61.1,57.5,29.93,East,101,3.0,6.0,88,0.00,,---,0.00,VWS V14.01,2013-04-19 04:55:00,
2013-04-19 01:00:00,61.4,57.8,29.93,SE,134,1.0,2.0,88,0.00,,---,0.00,VWS V14.01,2013-04-19 05:00:00,
2013-04-19 01:05:00,61.3,57.7,29.93,SE,132,1.0,3.0,88,0.00,,---,0.00,VWS V14.01,2013-04-19 05:05:00,
2013-04-19 01:11:00,61.3,57.7,29.92,ESE,111,3.0,3.0,88,0.00,,---,0.00,VWS V14.01,2013-04-19 05:11:00,
2013-04-19 01:16:00,61.2,57.6,29.92,SE,145,2.0,3.0,88,0.00,,---,0.00,VWS V14.01,2013-04-19 05:16:00,
2013-04-19 01:21:00,61.2,57.6,29.92,SE,128,1.0,4.0,88,0.00,,---,0.00,VWS V14.01,2013-04-19 05:21:00,
2013-04-19 01:26:00,61.1,57.5,29.92,SE,131,3.0,3.0,88,0.00,,---,0.00,VWS V14.01,2013-04-19 05:26:00,
2013-04-19 01:31:00,60.8,57.5,29.91,SE,142,1.0,4.0,89,0.00,,---,0.00,VWS V14.01,2013-04-19 05:31:00,
2013-04-19 01:36:00,60.7,57.8,29.91,SE,126,2.0,4.0,90,0.00,,---,0.00,VWS V14.01,2013-04-19 05:36:00,
2013-04-19 01:41:00,60.9,57.6,29.90,SSE,148,2.0,4.0,89,0.00,,---,0.00,VWS V14.01,2013-04-19 05:41:00,
2013-04-19 01:46:00,60.9,57.6,29.90,East,84,4.0,5.0,89,0.00,,---,0.00,VWS V14.01,2013-04-19 05:46:00,
2013-04-19 01:51:00,60.8,57.8,29.90,SE,128,3.0,5.0,90,0.00,,---,0.00,VWS V14.01,2013-04-19 05:51:00,
2013-04-19 01:56:00,61.0,57.7,29.90,SE,131,2.0,4.0,89,0.00,,---,0.00,VWS V14.01,2013-04-19 05:56:00,
2013-04-19 02:01:00,61.0,57.7,29.90,ESE,111,2.0,4.0,89,0.00,,---,0.00,VWS V14.01,2013-04-19 06:01:00,
2013-04-19 02:06:00,60.9,58.0,29.90,ESE,118,4.0,5.0,90,0.00,,---,0.00,VWS V14.01,2013-04-19 06:06:00,
2013-04-19 02:11:00,60.9,58.0,29.90,NE,54,3.0,4.0,90,0.00,,---,0.00,VWS V14.01,2013-04-19 06:11:00,
2013-04-19 02:16:00,61.2,57.9,29.90,SE,128,4.0,5.0,89,0.00,,---,0.00,VWS V14.01,2013-04-19 06:16:00,
2013-04-19 02:21:00,61.2,57.9,29.89,SE,134,3.0,5.0,89,0.00,,---,0.00,VWS V14.01,2013-04-19 06:21:00,
2013-04-19 02:26:00,61.2,57.9,29.88,ESE,110,4.0,4.0,89,0.00,,---,0.00,VWS V14.01,2013-04-19 06:26:00,
2013-04-19 02:31:00,61.2,57.9,29.88,ESE,122,4.0,4.0,89,0.00,,---,0.00,VWS V14.01,2013-04-19 06:31:00,
2013-04-19 02:36:00,61.1,57.8,29.88,SE,130,3.0,5.0,89,0.00,,---,0.00,VWS V14.01,2013-04-19 06:36:00,
2013-04-19 02:41:00,61.1,57.8,29.87,SE,136,4.0,4.0,89,0.00,,---,0.00,VWS V14.01,2013-04-19 06:41:00,
2013-04-19 02:46:00,61.0,58.0,29.87,SE,129,2.0,5.0,90,0.00,,---,0.00,VWS V14.01,2013-04-19 06:46:00,
2013-04-19 02:51:00,60.9,58.0,29.87,SE,131,3.0,4.0,90,0.00,,---,0.00,VWS V14.01,2013-04-19 06:51:00,
2013-04-19 02:56:00,61.0,58.0,29.87,SE,132,4.0,4.0,90,0.00,,---,0.00,VWS V14.01,2013-04-19 06:56:00,
2013-04-19 03:01:00,61.0,57.7,29.87,ENE,72,4.0,6.0,89,0.00,,---,0.00,VWS V14.01,2013-04-19 07:01:00,
2013-04-19 03:06:00,61.2,57.9,29.87,SE,139,3.0,6.0,89,0.00,,---,0.00,VWS V14.01,2013-04-19 07:06:00,
2013-04-19 03:11:00,61.1,57.8,29.86,SSE,156,1.0,3.0,89,0.00,,---,0.00,VWS V14.01,2013-04-19 07:11:00,
2013-04-19 03:16:00,61.0,58.0,29.86,ESE,123,3.0,6.0,90,0.00,,---,0.00,VWS V14.01,2013-04-19 07:16:00,
2013-04-19 03:21:00,61.0,57.7,29.86,ESE,108,5.0,5.0,89,0.00,,---,0.00,VWS V14.01,2013-04-19 07:21:00,
2013-04-19 03:26:00,60.7,57.8,29.86,ESE,115,4.0,5.0,90,0.00,,---,0.00,VWS V14.01,2013-04-19 07:26:00,
2013-04-19 03:31:00,60.7,57.8,29.85,SSE,147,2.0,4.0,90,0.00,,---,0.00,VWS V14.01,2013-04-19 07:31:00,
2013-04-19 03:36:00,60.5,57.9,29.86,SE,143,2.0,4.0,91,0.00,,---,0.00,VWS V14.01,2013-04-19 07:36:00,
2013-04-19 03:41:00,60.7,57.8,29.86,ESE,115,3.0,3.0,90,0.00,,---,0.00,VWS V14.01,2013-04-19 07:41:00,
2013-04-19 03:46:00,60.6,57.7,29.86,ESE,122,4.0,4.0,90,0.00,,---,0.00,VWS V14.01,2013-04-19 07:46:00,
2013-04-19 03:51:00,60.7,57.8,29.86,East,94,2.0,4.0,90,0.00,,---,0.00,VWS V14.01,2013-04-19 07:51:00,
2013-04-19 03:56:00,60.8,57.8,29.85,ESE,110,4.0,6.0,90,0.00,,---,0.00,VWS V14.01,2013-04-19 07:56:00,
2013-04-19 04:01:00,60.9,58.0,29.85,SE,134,3.0,5.0,90,0.00,,---,0.00,VWS V14.01,2013-04-19 08:01:00,
2013-04-19 04:06:00,60.8,57.8,29.85,ESE,122,5.0,5.0,90,0.00,,---,0.00,VWS V14.01,2013-04-19 08:06:00,
2013-04-19 04:11:00,60.7,57.8,29.85,ESE,105,3.0,4.0,90,0.00,,---,0.00,VWS V14.01,2013-04-19 08:11:00,
2013-04-19 04:16:00,60.6,57.7,29.84,SE,128,1.0,3.0,90,0.00,,---,0.00,VWS V14.01,2013-04-19 08:16:00,
2013-04-19 04:21:00,60.3,57.7,29.85,SSE,154,3.0,3.0,91,0.00,,---,0.00,VWS V14.01,2013-04-19 08:21:00,
2013-04-19 04:26:00,60.5,57.9,29.85,East,89,1.0,3.0,91,0.00,,---,0.00,VWS V14.01,2013-04-19 08:26:00,
2013-04-19 04:31:00,60.8,58.2,29.85,South,172,0.0,3.0,91,0.00,,---,0.00,VWS V14.01,2013-04-19 08:31:00,
2013-04-19 04:36:00,60.9,58.0,29.85,SE,132,2.0,3.0,90,0.00,,---,0.00,VWS V14.01,2013-04-19 08:36:00,
2013-04-19 04:41:00,61.0,58.0,29.85,ESE,119,4.0,5.0,90,0.00,,---,0.00,VWS V14.01,2013-04-19 08:41:00,
2013-04-19 04:46:00,61.0,58.0,29.85,SSE,148,3.0,4.0,90,0.00,,---,0.00,VWS V14.01,2013-04-19 08:46:00,
2013-04-19 04:51:00,61.1,58.2,29.85,East,100,3.0,5.0,90,0.00,,---,0.00,VWS V14.01,2013-04-19 08:51:00,
2013-04-19 04:56:00,61.1,58.2,29.85,South,173,1.0,2.0,90,0.00,,---,0.00,VWS V14.01,2013-04-19 08:56:00,
2013-04-19 05:01:00,61.1,58.2,29.85,SSW,203,2.0,2.0,90,0.00,,---,0.00,VWS V14.01,2013-04-19 09:01:00,
2013-04-19 05:06:00,61.2,58.2,29.86,SSW,192,0.0,1.0,90,0.00,,---,0.00,VWS V14.01,2013-04-19 09:06:00,
2013-04-19 05:11:00,61.2,58.2,29.85,SE,128,0.0,2.0,90,0.00,,---,0.00,VWS V14.01,2013-04-19 09:11:00,
2013-04-19 05:16:00,61.2,58.2,29.85,ESE,120,1.0,1.0,90,0.00,,---,0.00,VWS V14.01,2013-04-19 09:16:00,
2013-04-19 05:21:00,61.0,58.0,29.85,SE,128,2.0,3.0,90,0.00,,---,0.00,VWS V14.01,2013-04-19 09:21:00,
2013-04-19 05:26:00,60.9,58.0,29.84,SE,129,1.0,2.0,90,0.00,,---,0.00,VWS V14.01,2013-04-19 09:26:00,
2013-04-19 05:31:00,60.7,57.8,29.84,SSE,150,0.0,0.0,90,0.00,,---,0.00,VWS V14.01,2013-04-19 09:31:00,
2013-04-19 05:37:00,60.5,57.9,29.84,WSW,243,0.0,0.0,91,0.00,,---,0.00,VWS V14.01,2013-04-19 09:37:00,
2013-04-19 05:42:00,60.5,57.9,29.84,SSE,149,0.0,0.0,91,0.00,,---,0.00,VWS V14.01,2013-04-19 09:42:00,
2013-04-19 05:47:00,60.5,57.9,29.84,SW,219,1.0,1.0,91,0.00,,---,0.00,VWS V14.01,2013-04-19 09:47:00,
2013-04-19 05:52:00,60.6,58.0,29.84,WSW,253,0.0,0.0,91,0.00,,---,0.00,VWS V14.01,2013-04-19 09:52:00,
2013-04-19 05:57:00,60.5,57.9,29.84,WSW,252,0.0,0.0,91,0.00,,---,0.00,VWS V14.01,2013-04-19 09:57:00,
2013-04-19 06:02:00,60.4,57.8,29.84,ESE,110,0.0,2.0,91,0.00,,---,0.00,VWS V14.01,2013-04-19 10:02:00,
2013-04-19 06:07:00,60.5,57.9,29.84,SE,137,0.0,2.0,91,0.00,,---,0.00,VWS V14.01,2013-04-19 10:07:00,
2013-04-19 06:12:00,60.5,57.9,29.84,SE,129,1.0,2.0,91,0.00,,---,0.00,VWS V14.01,2013-04-19 10:12:00,
2013-04-19 06:17:00,60.6,58.0,29.84,SE,129,3.0,3.0,91,0.00,,---,0.00,VWS V14.01,2013-04-19 10:17:00,
2013-04-19 06:22:00,60.5,57.9,29.83,SE,125,2.0,3.0,91,0.00,,---,0.00,VWS V14.01,2013-04-19 10:22:00,
2013-04-19 06:27:00,60.4,57.8,29.84,East,84,1.0,2.0,91,0.00,,---,0.00,VWS V14.01,2013-04-19 10:27:00,
2013-04-19 06:32:00,60.3,57.7,29.84,SE,129,1.0,2.0,91,0.00,,---,0.00,VWS V14.01,2013-04-19 10:32:00,
2013-04-19 06:37:00,60.4,57.8,29.84,ESE,122,1.0,2.0,91,0.00,,---,0.00,VWS V14.01,2013-04-19 10:37:00,
2013-04-19 06:42:00,60.3,58.0,29.84,SE,130,1.0,3.0,92,0.00,,---,0.00,VWS V14.01,2013-04-19 10:42:00,
2013-04-19 06:47:00,60.3,58.0,29.84,SE,126,2.0,2.0,92,0.00,,---,0.00,VWS V14.01,2013-04-19 10:47:00,
2013-04-19 06:52:00,60.3,58.0,29.84,ESE,115,2.0,3.0,92,0.00,,---,0.00,VWS V14.01,2013-04-19 10:52:00,
2013-04-19 06:57:00,60.3,58.0,29.84,SE,139,1.0,2.0,92,0.00,,---,0.00,VWS V14.01,2013-04-19 10:57:00,
2013-04-19 07:02:00,60.3,58.0,29.84,ESE,115,1.0,2.0,92,0.00,,---,0.00,VWS V14.01,2013-04-19 11:02:00,
2013-04-19 07:07:00,60.5,58.2,29.83,East,88,1.0,3.0,92,0.00,,---,0.00,VWS V14.01,2013-04-19 11:07:00,
2013-04-19 07:12:00,60.5,58.2,29.83,SE,146,0.0,2.0,92,0.00,,---,0.00,VWS V14.01,2013-04-19 11:12:00,
2013-04-19 07:17:00,60.6,58.3,29.84,ESE,112,1.0,2.0,92,0.00,,---,0.00,VWS V14.01,2013-04-19 11:17:00,
2013-04-19 07:22:00,60.7,58.4,29.83,ESE,103,0.0,0.0,92,0.00,,---,0.00,VWS V14.01,2013-04-19 11:22:00,
2013-04-19 07:28:00,60.8,58.5,29.83,SE,128,0.0,0.0,92,0.00,,---,0.00,VWS V14.01,2013-04-19 11:28:00,
2013-04-19 07:33:00,60.8,58.5,29.84,East,99,0.0,0.0,92,0.00,,---,0.00,VWS V14.01,2013-04-19 11:33:00,
2013-04-19 07:38:00,60.9,58.6,29.84,East,79,2.0,2.0,92,0.00,,---,0.00,VWS V14.01,2013-04-19 11:38:00,
2013-04-19 07:43:00,61.1,58.8,29.84,ESE,110,3.0,3.0,92,0.00,,---,0.00,VWS V14.01,2013-04-19 11:43:00,
2013-04-19 07:48:00,61.2,58.9,29.83,East,94,0.0,2.0,92,0.00,,---,0.00,VWS V14.01,2013-04-19 11:48:00,
2013-04-19 07:53:00,61.3,59.0,29.83,ESE,115,0.0,1.0,92,0.00,,---,0.00,VWS V14.01,2013-04-19 11:53:00,
2013-04-19 07:58:00,61.4,59.1,29.83,East,83,0.0,1.0,92,0.00,,---,0.00,VWS V14.01,2013-04-19 11:58:00,
2013-04-19 08:03:00,61.5,59.2,29.83,NNW,342,0.0,0.0,92,0.00,,---,0.00,VWS V14.01,2013-04-19 12:03:00,
2013-04-19 08:08:00,61.5,59.2,29.83,SE,140,1.0,1.0,92,0.00,,---,0.00,VWS V14.01,2013-04-19 12:08:00,
2013-04-19 08:13:00,61.5,59.2,29.83,ESE,115,1.0,2.0,92,0.00,,---,0.00,VWS V14.01,2013-04-19 12:13:00,
2013-04-19 08:18:00,61.5,59.2,29.84,SSE,163,1.0,1.0,92,0.00,,---,0.00,VWS V14.01,2013-04-19 12:18:00,
2013-04-19 08:24:00,61.6,59.3,29.83,ENE,73,2.0,2.0,92,0.00,,---,0.00,VWS V14.01,2013-04-19 12:24:00,
2013-04-19 08:29:00,61.6,59.3,29.83,East,101,1.0,1.0,92,0.00,,---,0.00,VWS V14.01,2013-04-19 12:29:00,
2013-04-19 08:34:00,61.6,59.3,29.83,ENE,72,2.0,2.0,92,0.00,,---,0.00,VWS V14.01,2013-04-19 12:34:00,
2013-04-19 08:39:00,61.7,59.7,29.83,SE,146,0.0,3.0,93,0.00,,---,0.00,VWS V14.01,2013-04-19 12:39:00,
2013-04-19 08:44:00,61.7,59.7,29.82,ESE,115,1.0,1.0,93,0.00,,---,0.00,VWS V14.01,2013-04-19 12:44:00,
2013-04-19 08:49:00,61.8,59.8,29.82,ESE,113,2.0,2.0,93,0.00,,---,0.00,VWS V14.01,2013-04-19 12:49:00,
2013-04-19 08:54:00,61.8,59.8,29.82,ENE,75,1.0,1.0,93,0.00,,---,0.00,VWS V14.01,2013-04-19 12:54:00,
2013-04-19 08:59:00,61.8,59.5,29.82,East,94,1.0,1.0,92,0.00,,---,0.00,VWS V14.01,2013-04-19 12:59:00,
2013-04-19 09:04:00,61.9,59.5,29.81,SSE,155,2.0,2.0,92,0.00,,---,0.00,VWS V14.01,2013-04-19 13:04:00,
2013-04-19 09:09:00,62.1,59.8,29.81,SE,139,2.0,3.0,92,0.00,,---,0.00,VWS V14.01,2013-04-19 13:09:00,
2013-04-19 09:14:00,62.5,60.2,29.80,ESE,118,2.0,4.0,92,0.00,,---,0.00,VWS V14.01,2013-04-19 13:14:00,
2013-04-19 09:19:00,62.8,60.5,29.79,East,91,1.0,3.0,92,0.00,,---,0.00,VWS V14.01,2013-04-19 13:19:00,
2013-04-19 09:24:00,63.0,60.0,29.80,ESE,114,4.0,4.0,90,0.00,,---,0.00,VWS V14.01,2013-04-19 13:24:00,
2013-04-19 09:29:00,63.3,60.3,29.80,SE,141,2.0,2.0,90,0.00,,---,0.00,VWS V14.01,2013-04-19 13:29:00,
2013-04-19 09:34:00,63.7,60.7,29.79,ESE,105,4.0,4.0,90,0.00,,---,0.00,VWS V14.01,2013-04-19 13:34:00,
2013-04-19 09:39:00,63.7,60.7,29.79,ESE,112,1.0,4.0,90,0.00,,---,0.00,VWS V14.01,2013-04-19 13:39:00,
2013-04-19 09:44:00,63.6,60.6,29.78,East,101,0.0,4.0,90,0.00,,---,0.00,VWS V14.01,2013-04-19 13:44:00,
2013-04-19 09:50:00,63.7,60.7,29.78,SE,125,3.0,3.0,90,0.00,,---,0.00,VWS V14.01,2013-04-19 13:50:00,
2013-04-19 09:55:00,64.1,61.1,29.77,ESE,107,2.0,2.0,90,0.00,,---,0.00,VWS V14.01,2013-04-19 13:55:00,
2013-04-19 10:00:00,64.4,61.1,29.78,SE,133,1.0,1.0,89,0.00,,---,0.00,VWS V14.01,2013-04-19 14:00:00,
2013-04-19 10:05:00,64.5,61.2,29.78,ENE,70,3.0,4.0,89,0.00,,---,0.00,VWS V14.01,2013-04-19 14:05:00,
2013-04-19 10:10:00,64.8,61.5,29.77,SE,139,4.0,4.0,89,0.00,,---,0.00,VWS V14.01,2013-04-19 14:10:00,
2013-04-19 10:15:00,65.3,61.7,29.77,SE,143,1.0,3.0,88,0.00,,---,0.00,VWS V14.01,2013-04-19 14:15:00,
2013-04-19 10:20:00,65.5,61.5,29.78,East,99,2.0,3.0,87,0.00,,---,0.00,VWS V14.01,2013-04-19 14:20:00,
2013-04-19 10:25:00,65.6,61.6,29.77,SE,126,3.0,4.0,87,0.00,,---,0.00,VWS V14.01,2013-04-19 14:25:00,
2013-04-19 10:30:00,65.8,61.8,29.77,ENE,67,3.0,4.0,87,0.00,,---,0.00,VWS V14.01,2013-04-19 14:30:00,
2013-04-19 10:35:00,65.8,61.5,29.77,ESE,120,3.0,3.0,86,0.00,,---,0.00,VWS V14.01,2013-04-19 14:35:00,
2013-04-19 10:40:00,65.8,61.5,29.77,SE,131,3.0,4.0,86,0.00,,---,0.00,VWS V14.01,2013-04-19 14:40:00,
2013-04-19 10:46:00,65.9,61.6,29.76,SE,128,2.0,4.0,86,0.00,,---,0.00,VWS V14.01,2013-04-19 14:46:00,
2013-04-19 10:51:00,66.0,61.7,29.76,East,91,2.0,3.0,86,0.00,,---,0.00,VWS V14.01,2013-04-19 14:51:00,
2013-04-19 10:56:00,66.1,61.8,29.76,ESE,108,0.0,3.0,86,0.00,,---,0.00,VWS V14.01,2013-04-19 14:56:00,
2013-04-19 11:01:00,66.3,62.0,29.76,ESE,122,2.0,4.0,86,0.00,,---,0.00,VWS V14.01,2013-04-19 15:01:00,
2013-04-19 11:06:00,66.1,61.8,29.76,SE,133,2.0,3.0,86,0.00,,---,0.00,VWS V14.01,2013-04-19 15:06:00,
2013-04-19 11:11:00,66.2,61.9,29.76,ESE,119,4.0,4.0,86,0.00,,---,0.00,VWS V14.01,2013-04-19 15:11:00,
2013-04-19 11:16:00,66.3,62.0,29.76,SE,128,3.0,4.0,86,0.00,,---,0.00,VWS V14.01,2013-04-19 15:16:00,
2013-04-19 11:22:00,66.4,62.1,29.76,ESE,116,2.0,2.0,86,0.00,,---,0.00,VWS V14.01,2013-04-19 15:22:00,
2013-04-19 11:27:00,66.5,62.2,29.76,North,9,1.0,3.0,86,0.00,,---,0.00,VWS V14.01,2013-04-19 15:27:00,
2013-04-19 11:32:00,66.6,62.3,29.76,SE,145,2.0,3.0,86,0.00,,---,0.00,VWS V14.01,2013-04-19 15:32:00,
2013-04-19 11:37:00,66.6,62.0,29.75,East,95,1.0,4.0,85,0.00,,---,0.00,VWS V14.01,2013-04-19 15:37:00,
2013-04-19 11:42:00,66.6,62.0,29.75,East,91,0.0,3.0,85,0.00,,---,0.00,VWS V14.01,2013-04-19 15:42:00,
2013-04-19 11:47:00,66.5,61.9,29.75,East,89,2.0,5.0,85,0.00,,---,0.00,VWS V14.01,2013-04-19 15:47:00,
2013-04-19 11:52:00,66.4,61.8,29.75,SE,129,3.0,3.0,85,0.00,,---,0.00,VWS V14.01,2013-04-19 15:52:00,
2013-04-19 11:57:00,66.3,62.0,29.75,SE,141,3.0,3.0,86,0.00,,---,0.00,VWS V14.01,2013-04-19 15:57:00,
2013-04-19 12:02:00,66.2,61.9,29.74,SSE,148,3.0,4.0,86,0.00,,---,0.00,VWS V14.01,2013-04-19 16:02:00,
2013-04-19 12:07:00,66.2,61.9,29.74,ESE,113,1.0,4.0,86,0.00,,---,0.00,VWS V14.01,2013-04-19 16:07:00,
2013-04-19 12:12:00,66.3,62.3,29.74,East,96,1.0,3.0,87,0.00,,---,0.00,VWS V14.01,2013-04-19 16:12:00,
2013-04-19 12:17:00,66.6,62.3,29.74,ESE,108,1.0,2.0,86,0.00,,---,0.00,VWS V14.01,2013-04-19 16:17:00,
2013-04-19 12:22:00,66.7,62.4,29.74,ESE,113,4.0,4.0,86,0.00,,---,0.00,VWS V14.01,2013-04-19 16:22:00,
2013-04-19 12:27:00,66.9,62.6,29.73,ESE,107,2.0,4.0,86,0.00,,---,0.00,VWS V14.01,2013-04-19 16:27:00,
2013-04-19 12:32:00,67.2,62.5,29.73,ESE,103,8.0,9.0,85,0.00,,---,0.00,VWS V14.01,2013-04-19 16:32:00,
2013-04-19 12:37:00,67.5,62.5,29.73,SE,146,2.0,4.0,84,0.00,,---,0.00,VWS V14.01,2013-04-19 16:37:00,
2013-04-19 12:42:00,68.0,63.0,29.72,ESE,114,3.0,3.0,84,0.00,,---,0.00,VWS V14.01,2013-04-19 16:42:00,
2013-04-19 12:47:00,68.4,63.0,29.72,ESE,115,3.0,5.0,83,0.00,,---,0.00,VWS V14.01,2013-04-19 16:47:00,
2013-04-19 12:53:00,68.7,63.0,29.72,SSE,158,4.0,5.0,82,0.00,,---,0.00,VWS V14.01,2013-04-19 16:53:00,
2013-04-19 12:58:00,68.7,63.0,29.70,ESE,103,2.0,4.0,82,0.00,,---,0.00,VWS V14.01,2013-04-19 16:58:00,
2013-04-19 13:03:00,69.2,63.5,29.70,East,90,3.0,4.0,82,0.00,,---,0.00,VWS V14.01,2013-04-19 17:03:00,
2013-04-19 13:08:00,70.4,64.3,29.70,SE,139,3.0,4.0,81,0.00,,---,0.00,VWS V14.01,2013-04-19 17:08:00,
2013-04-19 13:13:00,71.3,64.5,29.70,East,79,5.0,5.0,79,0.00,,---,0.00,VWS V14.01,2013-04-19 17:13:00,
2013-04-19 13:18:00,71.8,64.2,29.69,SE,136,2.0,4.0,77,0.00,,---,0.00,VWS V14.01,2013-04-19 17:18:00,
2013-04-19 13:23:00,71.9,63.9,29.69,East,93,5.0,6.0,76,0.00,,---,0.00,VWS V14.01,2013-04-19 17:23:00,
2013-04-19 13:28:00,72.0,64.4,29.68,SSE,155,1.0,3.0,77,0.00,,---,0.00,VWS V14.01,2013-04-19 17:28:00,
2013-04-19 13:33:00,71.8,63.8,29.68,SSE,149,2.0,7.0,76,0.00,,---,0.00,VWS V14.01,2013-04-19 17:33:00,
2013-04-19 13:38:00,71.8,64.2,29.68,NE,43,3.0,8.0,77,0.00,,---,0.00,VWS V14.01,2013-04-19 17:38:00,
2013-04-19 13:43:00,72.1,64.1,29.67,SSE,157,0.0,5.0,76,0.00,,---,0.00,VWS V14.01,2013-04-19 17:43:00,
2013-04-19 13:48:00,72.1,64.1,29.67,East,86,3.0,4.0,76,0.00,,---,0.00,VWS V14.01,2013-04-19 17:48:00,
2013-04-19 13:53:00,72.1,63.8,29.66,East,91,5.0,8.0,75,0.00,,---,0.00,VWS V14.01,2013-04-19 17:53:00,
2013-04-19 13:58:00,72.1,63.8,29.66,East,98,1.0,3.0,75,0.00,,---,0.00,VWS V14.01,2013-04-19 17:58:00,
2013-04-19 14:03:00,72.0,64.0,29.66,East,80,2.0,3.0,76,0.00,,---,0.00,VWS V14.01,2013-04-19 18:03:00,
2013-04-19 14:09:00,72.1,64.1,29.64,South,184,1.0,1.0,76,0.00,,---,0.00,VWS V14.01,2013-04-19 18:09:00,
2013-04-19 14:14:00,71.9,63.9,29.65,East,82,2.0,3.0,76,0.00,,---,0.00,VWS V14.01,2013-04-19 18:14:00,
2013-04-19 14:19:00,71.7,63.7,29.64,SE,128,1.0,3.0,76,0.00,,---,0.00,VWS V14.01,2013-04-19 18:19:00,
2013-04-19 14:24:00,71.4,63.8,29.64,SE,142,1.0,3.0,77,0.00,,---,0.00,VWS V14.01,2013-04-19 18:24:00,
2013-04-19 14:29:00,71.2,63.6,29.63,East,86,1.0,4.0,77,0.00,,---,0.00,VWS V14.01,2013-04-19 18:29:00,
2013-04-19 14:34:00,70.8,63.6,29.62,SSE,156,3.0,4.0,78,0.00,,---,0.00,VWS V14.01,2013-04-19 18:34:00,
2013-04-19 14:39:00,70.8,63.6,29.62,ESE,102,2.0,5.0,78,0.00,,---,0.00,VWS V14.01,2013-04-19 18:39:00,
2013-04-19 14:44:00,70.8,63.6,29.61,SE,142,4.0,6.0,78,0.00,,---,0.00,VWS V14.01,2013-04-19 18:44:00,
2013-04-19 14:49:00,70.8,63.6,29.61,SE,146,2.0,6.0,78,0.00,,---,0.00,VWS V14.01,2013-04-19 18:49:00,
2013-04-19 14:54:00,71.0,63.4,29.62,SSW,205,4.0,7.0,77,0.00,,---,0.00,VWS V14.01,2013-04-19 18:54:00,
2013-04-19 14:59:00,71.1,63.5,29.62,WSW,254,1.0,4.0,77,0.00,,---,0.00,VWS V14.01,2013-04-19 18:59:00,
2013-04-19 15:04:00,71.0,63.4,29.63,SE,138,1.0,1.0,77,0.00,,---,0.00,VWS V14.01,2013-04-19 19:04:00,
2013-04-19 15:09:00,70.9,63.3,29.63,NE,35,2.0,3.0,77,0.00,,---,0.00,VWS V14.01,2013-04-19 19:09:00,
2013-04-19 15:14:00,70.7,63.1,29.62,ESE,102,2.0,3.0,77,0.00,,---,0.00,VWS V14.01,2013-04-19 19:14:00,
2013-04-19 15:19:00,70.6,63.0,29.61,SE,129,4.0,5.0,77,0.00,,---,0.00,VWS V14.01,2013-04-19 19:19:00,
2013-04-19 15:24:00,70.7,63.1,29.61,West,259,0.0,2.0,77,0.00,,---,0.00,VWS V14.01,2013-04-19 19:24:00,
2013-04-19 15:29:00,70.7,63.5,29.61,NW,317,4.0,5.0,78,0.00,,---,0.00,VWS V14.01,2013-04-19 19:29:00,
2013-04-19 15:34:00,70.3,63.8,29.61,ENE,76,1.0,3.0,80,0.00,,---,0.00,VWS V14.01,2013-04-19 19:34:00,
2013-04-19 15:39:00,70.1,63.3,29.61,ESE,118,2.0,4.0,79,0.00,,---,0.00,VWS V14.01,2013-04-19 19:39:00,
2013-04-19 15:44:00,70.0,63.5,29.61,SE,124,1.0,5.0,80,0.00,,---,0.00,VWS V14.01,2013-04-19 19:44:00,
2013-04-19 15:49:00,69.8,63.4,29.60,ESE,114,3.0,3.0,80,0.00,,---,0.00,VWS V14.01,2013-04-19 19:49:00,
2013-04-19 15:54:00,69.8,63.4,29.60,ESE,112,2.0,3.0,80,0.00,,---,0.00,VWS V14.01,2013-04-19 19:54:00,
2013-04-19 15:59:00,69.8,63.4,29.60,East,94,2.0,5.0,80,0.00,,---,0.00,VWS V14.01,2013-04-19 19:59:00,
2013-04-19 16:05:00,69.8,63.4,29.60,ESE,105,3.0,3.0,80,0.00,,---,0.00,VWS V14.01,2013-04-19 20:05:00,
2013-04-19 16:10:00,69.9,63.5,29.60,East,94,1.0,2.0,80,0.00,,---,0.00,VWS V14.01,2013-04-19 20:10:00,
2013-04-19 16:15:00,70.1,63.7,29.59,ENE,59,4.0,4.0,80,0.00,,---,0.00,VWS V14.01,2013-04-19 20:15:00,
2013-04-19 16:20:00,70.1,63.7,29.59,SSE,149,1.0,2.0,80,0.00,,---,0.00,VWS V14.01,2013-04-19 20:20:00,
2013-04-19 16:25:00,70.2,63.8,29.59,East,84,1.0,4.0,80,0.00,,---,0.00,VWS V14.01,2013-04-19 20:25:00,
2013-04-19 16:30:00,70.1,63.7,29.59,ESE,117,1.0,2.0,80,0.00,,---,0.00,VWS V14.01,2013-04-19 20:30:00,
2013-04-19 16:35:00,70.1,63.7,29.58,SE,139,2.0,2.0,80,0.00,,---,0.00,VWS V14.01,2013-04-19 20:35:00,
2013-04-19 16:40:00,70.2,63.8,29.58,SSE,149,1.0,1.0,80,0.00,,---,0.00,VWS V14.01,2013-04-19 20:40:00,
2013-04-19 16:45:00,70.2,63.8,29.58,East,96,2.0,3.0,80,0.00,,---,0.00,VWS V14.01,2013-04-19 20:45:00,
2013-04-19 16:50:00,70.3,63.8,29.57,ESE,103,2.0,3.0,80,0.00,,---,0.00,VWS V14.01,2013-04-19 20:50:00,
2013-04-19 16:55:00,70.3,63.8,29.57,SE,136,2.0,2.0,80,0.00,,---,0.00,VWS V14.01,2013-04-19 20:55:00,
2013-04-19 17:00:00,70.2,63.8,29.58,SSE,162,1.0,1.0,80,0.00,,---,0.00,VWS V14.01,2013-04-19 21:00:00,
2013-04-19 17:05:00,70.2,63.8,29.58,East,101,0.0,2.0,80,0.00,,---,0.00,VWS V14.01,2013-04-19 21:05:00,
2013-04-19 17:10:00,70.3,63.8,29.58,SE,131,0.0,2.0,80,0.00,,---,0.00,VWS V14.01,2013-04-19 21:10:00,
2013-04-19 17:15:00,70.2,64.1,29.58,SE,135,1.0,2.0,81,0.00,,---,0.00,VWS V14.01,2013-04-19 21:15:00,
2013-04-19 17:20:00,70.1,64.0,29.57,SE,124,2.0,4.0,81,0.00,,---,0.00,VWS V14.01,2013-04-19 21:20:00,
2013-04-19 17:25:00,69.9,64.2,29.57,SSE,163,0.0,0.0,82,0.00,,---,0.00,VWS V14.01,2013-04-19 21:25:00,
2013-04-19 17:30:00,69.9,64.2,29.58,East,83,0.0,4.0,82,0.00,,---,0.00,VWS V14.01,2013-04-19 21:30:00,
2013-04-19 17:35:00,69.6,64.9,29.58,SE,128,0.0,1.0,85,0.02,,---,0.02,VWS V14.01,2013-04-19 21:35:00,
2013-04-19 17:40:00,69.0,65.0,29.58,East,98,0.0,2.0,87,0.02,,---,0.02,VWS V14.01,2013-04-19 21:40:00,
2013-04-19 17:45:00,68.3,64.6,29.59,East,98,0.0,0.0,88,0.02,,---,0.02,VWS V14.01,2013-04-19 21:45:00,
2013-04-19 17:51:00,67.7,64.7,29.59,ESE,113,1.0,2.0,90,0.06,,---,0.06,VWS V14.01,2013-04-19 21:51:00,
2013-04-19 17:56:00,67.2,64.5,29.59,NE,54,1.0,2.0,91,0.07,,---,0.07,VWS V14.01,2013-04-19 21:56:00,
2013-04-19 18:01:00,67.0,64.6,29.60,East,90,0.0,0.0,92,0.09,,---,0.09,VWS V14.01,2013-04-19 22:01:00,
2013-04-19 18:06:00,66.9,64.5,29.60,SW,229,0.0,3.0,92,0.10,,---,0.10,VWS V14.01,2013-04-19 22:06:00,
2013-04-19 18:11:00,67.0,64.6,29.59,NNW,345,6.0,6.0,92,0.11,,---,0.11,VWS V14.01,2013-04-19 22:11:00,
2013-04-19 18:16:00,66.0,62.7,29.61,NW,314,3.0,4.0,89,0.19,,---,0.19,VWS V14.01,2013-04-19 22:16:00,
2013-04-19 18:21:00,64.3,61.3,29.63,ENE,65,0.0,2.0,90,0.41,,---,0.41,VWS V14.01,2013-04-19 22:21:00,
2013-04-19 18:26:00,63.0,60.6,29.62,WSW,249,1.0,3.0,92,0.50,,---,0.50,VWS V14.01,2013-04-19 22:26:00,
2013-04-19 18:32:00,62.2,60.2,29.63,NNE,30,3.0,3.0,93,0.56,,---,0.56,VWS V14.01,2013-04-19 22:32:00,
2013-04-19 18:37:00,61.7,60.0,29.64,NNE,29,3.0,3.0,94,0.61,,---,0.63,VWS V14.01,2013-04-19 22:37:00,
2013-04-19 18:42:00,61.4,60.0,29.63,ESE,115,0.0,5.0,95,0.65,,---,0.67,VWS V14.01,2013-04-19 22:42:00,
2013-04-19 18:47:00,61.1,59.7,29.62,SW,226,2.0,3.0,95,0.66,,---,0.69,VWS V14.01,2013-04-19 22:47:00,
2013-04-19 18:52:00,61.1,59.7,29.64,North,1,0.0,0.0,95,0.65,,---,0.71,VWS V14.01,2013-04-19 22:52:00,
2013-04-19 18:57:00,60.9,59.5,29.62,NNE,16,3.0,3.0,95,0.66,,---,0.73,VWS V14.01,2013-04-19 22:57:00,
2013-04-19 19:02:00,60.3,58.9,29.63,West,269,0.0,2.0,95,0.65,,---,0.74,VWS V14.01,2013-04-19 23:02:00,
2013-04-19 19:07:00,59.2,57.5,29.62,NW,322,1.0,2.0,94,0.65,,---,0.75,VWS V14.01,2013-04-19 23:07:00,
2013-04-19 19:12:00,58.5,56.8,29.63,NE,39,0.0,2.0,94,0.64,,---,0.75,VWS V14.01,2013-04-19 23:12:00,
2013-04-19 19:17:00,57.8,55.8,29.65,North,4,1.0,2.0,93,0.57,,---,0.76,VWS V14.01,2013-04-19 23:17:00,
2013-04-19 19:22:00,57.4,55.7,29.65,NNE,12,0.0,0.0,94,0.35,,---,0.76,VWS V14.01,2013-04-19 23:22:00,
2013-04-19 19:27:00,57.0,55.3,29.66,NW,323,0.0,1.0,94,0.26,,---,0.76,VWS V14.01,2013-04-19 23:27:00,
2013-04-19 19:32:00,56.6,54.9,29.67,NW,322,2.0,5.0,94,0.21,,---,0.76,VWS V14.01,2013-04-19 23:32:00,
2013-04-19 19:37:00,56.3,54.6,29.66,West,278,1.0,2.0,94,0.14,,---,0.77,VWS V14.01,2013-04-19 23:37:00,
2013-04-19 19:42:00,56.2,54.8,29.66,NNW,340,1.0,1.0,95,0.12,,---,0.78,VWS V14.01,2013-04-19 23:42:00,
2013-04-19 19:47:00,56.1,54.7,29.66,NW,324,0.0,0.0,95,0.09,,---,0.78,VWS V14.01,2013-04-19 23:47:00,
2013-04-19 19:52:00,56.1,55.0,29.66,NW,304,0.0,0.0,96,0.07,,---,0.78,VWS V14.01,2013-04-19 23:52:00,
2013-04-19 19:57:00,55.9,54.5,29.66,NW,318,1.0,2.0,95,0.05,,---,0.78,VWS V14.01,2013-04-19 23:57:00,
2013-04-19 20:02:00,55.4,54.0,29.65,NW,326,1.0,1.0,95,0.04,,---,0.78,VWS V14.01,2013-04-20 00:02:00,
2013-04-19 20:07:00,55.0,53.6,29.66,NW,323,0.0,2.0,95,0.03,,---,0.78,VWS V14.01,2013-04-20 00:07:00,
2013-04-19 20:12:00,54.6,52.9,29.65,NW,305,0.0,1.0,94,0.03,,---,0.78,VWS V14.01,2013-04-20 00:12:00,
2013-04-19 20:17:00,54.3,52.6,29.66,NW,321,0.0,1.0,94,0.03,,---,0.78,VWS V14.01,2013-04-20 00:17:00,
2013-04-19 20:22:00,54.0,52.3,29.67,NW,323,0.0,0.0,94,0.02,,---,0.78,VWS V14.01,2013-04-20 00:22:00,
2013-04-19 20:27:00,53.7,52.0,29.66,NW,308,0.0,1.0,94,0.02,,---,0.78,VWS V14.01,2013-04-20 00:27:00,
2013-04-19 20:33:00,53.2,51.2,29.66,NNE,16,1.0,2.0,93,0.02,,---,0.78,VWS V14.01,2013-04-20 00:33:00,
2013-04-19 20:38:00,52.6,49.8,29.67,WNW,297,1.0,2.0,90,0.01,,---,0.78,VWS V14.01,2013-04-20 00:38:00,
2013-04-19 20:43:00,52.1,49.0,29.67,NNW,334,2.0,2.0,89,0.00,,---,0.78,VWS V14.01,2013-04-20 00:43:00,
2013-04-19 20:48:00,51.8,48.7,29.68,NW,322,0.0,0.0,89,0.01,,---,0.79,VWS V14.01,2013-04-20 00:48:00,
2013-04-19 20:53:00,51.4,48.0,29.69,NNW,338,0.0,2.0,88,0.01,,---,0.79,VWS V14.01,2013-04-20 00:53:00,
2013-04-19 20:58:00,51.2,47.5,29.69,NNW,332,0.0,2.0,87,0.01,,---,0.79,VWS V14.01,2013-04-20 00:58:00,
2013-04-19 21:03:00,50.9,46.6,29.69,West,280,0.0,2.0,85,0.01,,---,0.79,VWS V14.01,2013-04-20 01:03:00,
2013-04-19 21:08:00,50.9,46.9,29.70,NNW,329,1.0,6.0,86,0.01,,---,0.79,VWS V14.01,2013-04-20 01:08:00,
2013-04-19 21:14:00,50.9,46.2,29.69,North,7,0.0,0.0,84,0.01,,---,0.79,VWS V14.01,2013-04-20 01:14:00,
2013-04-19 21:19:00,50.7,45.4,29.70,NNE,23,1.0,2.0,82,0.01,,---,0.79,VWS V14.01,2013-04-20 01:19:00,
2013-04-19 21:24:00,50.8,44.9,29.71,West,263,2.0,5.0,80,0.01,,---,0.79,VWS V14.01,2013-04-20 01:24:00,
2013-04-19 21:29:00,51.0,45.1,29.72,North,5,1.0,1.0,80,0.01,,---,0.79,VWS V14.01,2013-04-20 01:29:00,
2013-04-19 21:34:00,50.8,45.2,29.72,WNW,294,1.0,4.0,81,0.01,,---,0.79,VWS V14.01,2013-04-20 01:34:00,
2013-04-19 21:39:00,50.8,43.9,29.72,NNW,330,2.0,3.0,77,0.01,,---,0.79,VWS V14.01,2013-04-20 01:39:00,
2013-04-19 21:44:00,50.8,44.2,29.72,NW,322,0.0,3.0,78,0.01,,---,0.79,VWS V14.01,2013-04-20 01:44:00,
2013-04-19 21:49:00,50.8,43.9,29.72,North,360,1.0,2.0,77,0.00,,---,0.79,VWS V14.01,2013-04-20 01:49:00,
2013-04-19 21:54:00,50.8,43.5,29.72,NE,37,2.0,2.0,76,0.00,,---,0.79,VWS V14.01,2013-04-20 01:54:00,
2013-04-19 21:59:00,50.7,43.8,29.72,East,94,0.0,0.0,77,0.00,,---,0.79,VWS V14.01,2013-04-20 01:59:00,
2013-04-19 22:04:00,50.6,44.0,29.72,North,349,1.0,1.0,78,0.00,,---,0.79,VWS V14.01,2013-04-20 02:04:00,
2013-04-19 22:09:00,50.4,43.5,29.72,NW,326,0.0,2.0,77,0.00,,---,0.79,VWS V14.01,2013-04-20 02:09:00,
2013-04-19 22:14:00,50.4,43.5,29.72,WNW,302,0.0,0.0,77,0.00,,---,0.79,VWS V14.01,2013-04-20 02:14:00,
2013-04-19 22:19:00,50.3,42.3,29.73,SSW,212,0.0,1.0,74,0.00,,---,0.79,VWS V14.01,2013-04-20 02:19:00,
2013-04-19 22:24:00,50.3,42.3,29.73,WNW,299,0.0,3.0,74,0.00,,---,0.79,VWS V14.01,2013-04-20 02:24:00,
2013-04-19 22:29:00,50.3,42.7,29.74,WNW,291,0.0,2.0,75,0.00,,---,0.79,VWS V14.01,2013-04-20 02:29:00,
2013-04-19 22:34:00,50.2,42.2,29.74,NW,323,0.0,1.0,74,0.00,,---,0.79,VWS V14.01,2013-04-20 02:34:00,
2013-04-19 22:39:00,50.1,43.2,29.74,West,259,1.0,1.0,77,0.00,,---,0.79,VWS V14.01,2013-04-20 02:39:00,
2013-04-19 22:44:00,49.9,42.3,29.74,West,278,2.0,3.0,75,0.00,,---,0.79,VWS V14.01,2013-04-20 02:44:00,
2013-04-19 22:49:00,49.7,41.0,29.75,NNW,336,0.0,2.0,72,0.00,,---,0.79,VWS V14.01,2013-04-20 02:49:00,
2013-04-19 22:54:00,49.5,42.3,29.75,NNW,341,0.0,3.0,76,0.00,,---,0.79,VWS V14.01,2013-04-20 02:54:00,
2013-04-19 23:00:00,49.2,42.6,29.75,NE,41,2.0,2.0,78,0.00,,---,0.79,VWS V14.01,2013-04-20 03:00:00,
2013-04-19 23:05:00,49.1,42.2,29.75,East,84,0.0,1.0,77,0.00,,---,0.79,VWS V14.01,2013-04-20 03:05:00,
2013-04-19 23:10:00,49.1,41.5,29.75,NNW,337,1.0,2.0,75,0.00,,---,0.79,VWS V14.01,2013-04-20 03:10:00,
2013-04-19 23:15:00,49.1,41.5,29.75,ENE,64,2.0,2.0,75,0.00,,---,0.79,VWS V14.01,2013-04-20 03:15:00,
2013-04-19 23:20:00,49.2,41.6,29.75,ENE,75,0.0,1.0,75,0.00,,---,0.79,VWS V14.01,2013-04-20 03:20:00,
2013-04-19 23:25:00,49.2,40.9,29.75,North,358,1.0,1.0,73,0.00,,---,0.79,VWS V14.01,2013-04-20 03:25:00,
2013-04-19 23:30:00,49.2,41.6,29.75,NW,319,0.0,1.0,75,0.00,,---,0.79,VWS V14.01,2013-04-20 03:30:00,
2013-04-19 23:35:00,49.0,41.4,29.75,NW,319,0.0,0.0,75,0.00,,---,0.79,VWS V14.01,2013-04-20 03:35:00,
2013-04-19 23:40:00,48.9,41.3,29.75,NW,311,0.0,1.0,75,0.00,,---,0.79,VWS V14.01,2013-04-20 03:40:00,
2013-04-19 23:45:00,48.8,41.2,29.75,NNW,340,0.0,2.0,75,0.00,,---,0.79,VWS V14.01,2013-04-20 03:45:00,
2013-04-19 23:50:00,48.8,41.2,29.75,NW,316,0.0,0.0,75,0.00,,---,0.79,VWS V14.01,2013-04-20 03:50:00,
2013-04-19 23:55:00,48.8,40.5,29.75,NW,322,2.0,7.0,73,0.00,,---,0.79,VWS V14.01,2013-04-20 03:55:00,